Regional Weather Roundup
Issued by NWS

Home | Current Version | Previous Version | Graphics & Text | Print | Product List | Glossary On
Versions: 1 2 3 4 5 6 7 8 9 10 11 12 13 14 15 16 17 18 19 20 21 22 23 24 25 26 27 28 29 30 31 32 33 34 35 36 37 38 39 40 41 42 43 44 45 46 47 48 49 50
000
ASUS43 KMPX 180510
RWRMN
WEATHER ROUNDUP FOR MINNESOTA
NATIONAL WEATHER SERVICE TWIN CITIES/CHANHASSEN MN
1200 AM CDT SAT APR 18 2015


NOTE: "FAIR" INDICATES FEW OR NO CLOUDS BELOW 12,000 FEET WITH NO
SIGNIFICANT WEATHER AND/OR OBSTRUCTIONS TO VISIBILITY. N/A MEANS
CURRENT SKY AND/OR WEATHER CONDITIONS ARE NOT AVAILABLE.

MNZ060>063-068>070-180600-
   Twin Cities Metro

CITY           SKY/WX    TMP DP  RH WIND       PRES   REMARKS
TWIN CITIES    PTCLDY    57  35  43 NW6       30.04S
ST PAUL        PTCLDY    54  40  59 CALM      30.04S
CRYSTAL        PTCLDY    51  34  52 CALM      30.03S
BLAINE         CLEAR     50  34  53 CALM      30.04S
LAKEVILLE      PTCLDY    46  39  76 CALM      30.04S HAZE
EDEN PRAIRIE   PTCLDY    59  28  30 N6        30.03S
SOUTH ST PAUL  PTCLDY    53  36  52 CALM      30.03S
LAKE ELMO      FAIR      46  36  66 CALM      30.04F
$$
MNZ001>005-007-008-013>017-022>024-027-028-180600-
   Northwest Minnesota

CITY           SKY/WX    TMP DP  RH WIND       PRES   REMARKS
BEMIDJI        CLEAR     46  27  47 N9        30.12S
HALLOCK        CLEAR     41  28  60 N7        30.17S
ROSEAU         CLEAR     41  30  65 E6        30.18R
WARROAD        CLEAR     39  34  81 NE6       30.20R
THIEF RVR FALL CLEAR     46  28  49 NE13      30.15S
CROOKSTON      FAIR      45  28  53 NE6       30.15R
FOSSTON        CLEAR     45  21  39 NE10      30.13S
DETROIT LAKES  CLEAR     54  25  32 NE7       30.11R
MOORHEAD       PTCLDY    45  18  33 N6        30.11R
PARK RAPIDS    CLEAR     54  19  25 N8        30.10R
MAHNOMEN       FAIR      48  24  39 NE6       30.11R
$$
MNZ006-009>011-018-025>026-180600-
   North Central Minnesota

CITY           SKY/WX    TMP DP  RH WIND       PRES   REMARKS
BAUDETTE       CLEAR     42  29  59 NE7       30.18R
FLAG ISLAND    CLEAR     43  28  56 NE12      30.16S
INTL FALLS     CLEAR     43  30  60 NE8       30.16R
WASKISH        CLEAR     43  30  61 CALM      30.16R
BIG FORK       CLEAR     46  28  49 N8        30.14R
LONGVILLE      CLEAR     48  23  37 N3        30.10S
GRAND RAPIDS   CLEAR     52  21  30 N8        30.11R
ORR            CLEAR     45  27  49 CALM      30.12R
COOK           CLEAR     45  30  57 N3        30.14R
WALKER         FAIR      49  22  34 N5        30.11R
$$
MNZ012-019>021-037-180600-
   Northeast Minnesota

CITY           SKY/WX    TMP DP  RH WIND       PRES   REMARKS
DULUTH         CLEAR     55  27  34 N13       30.07R
ELY            CLEAR     45  28  53 N3        30.13R
HIBBING        CLEAR     50  25  37 NE7       30.10R
EVELETH        CLEAR     50  28  43 NE10G17   30.10R
DULUTH HARBOR  CLEAR     50  34  53 N10       30.07R
TWO HARBORS    CLEAR     57  30  35 N7        30.06R
SILVER BAY     CLEAR     54  28  37 N9        30.07R
GRAND MARAIS     N/A     50  31  48 N6        30.09R
G MARAIS ARPRT CLEAR     43  27  52 N15G21    30.10R
$$
MNZ029>031-032-039>041-046>048-054>057-064-180600-
   West Central Minnesota

CITY           SKY/WX    TMP DP  RH WIND       PRES   REMARKS
FERGUS FALLS   CLEAR     55  23  28 NE7       30.07S
WHEATON        PTCLDY    50  27  40 W3        30.08R
MORRIS         PTCLDY    50  21  32 CALM      30.05S
ALEXANDRIA     CLEAR     47  31  53 N7        30.08R
ELBOW LAKE     FAIR      55  32  40 NE6       30.06S
WADENA         CLEAR    N/A N/A N/A NE10      30.08R
GLENWOOD       PTCLDY    48  23  37 SW6       30.07R
APPLETON       MOCLDY    45  21  39 CALM      30.05S
BENSON         MOCLDY    43  27  52 CALM      30.05F
ORTONVILLE     MOCLDY    52  21  30 W5        30.05F
MADISON        PTCLDY    46  19  34 W6        30.06S
WILLMAR        FAIR      46  28  49 CALM      30.07S
$$
MNZ033>034-036-042>043-049>051-058-059-180600-
   Central Minnesota

CITY           SKY/WX    TMP DP  RH WIND       PRES   REMARKS
ST CLOUD       CLEAR     48  28  46 CALM      30.04S
SAUK CENTRE    FAIR      45  23  42 CALM      30.05S
PAYNESVILLE    CLEAR     39  27  61 SW3       30.06S
AITKIN         CLEAR     54  23  30 N7        30.07R
PINE RIVER     CLEAR     54  30  40 CALM      30.13R
BRAINERD       CLEAR     56  28  34 NE9       30.08R
STAPLES        CLEAR     54  25  32 N7        30.07S
LONG PRAIRIE   FAIR      45  30  57 NW3       30.07R
LITTLE FALLS   CLEAR     50  25  37 CALM      30.05R
LITCHFIELD     PTCLDY    50  32  50 CALM      30.06S
BUFFALO        CLEAR     48  30  50 CALM      30.05S
MAPLE LAKE     CLEAR     46  34  62 CALM      30.05S
$$
MNZ037-044-045-052-053-180600-
   East Central Minnesota

CITY           SKY/WX    TMP DP  RH WIND       PRES   REMARKS
PRINCETON      CLEAR     45  34  65 CALM      30.04S
MORA           CLEAR     39  32  75 CALM      30.05S
CAMBRIDGE      CLEAR     46  34  61 CALM      30.02S
RUSH CITY      PTCLDY    47  31  53 CALM      30.03S
MOOSE LAKE     CLEAR     54  28  37 CALM      30.05R
HINCKLEY       FAIR      43  30  61 NW5       30.03S
CLOQUET        CLEAR     52  19  28 N7        30.07R
MCGREGOR       PTCLDY    54  28  37 N5        30.08R
$$
MNZ071>073-080-081-089-090-097-098-180600-
   Southwest Minnesota

CITY           SKY/WX    TMP DP  RH WIND       PRES   REMARKS
MONTEVIDEO     MOCLDY    52  18  25 CALM      30.06F
GRANITE FALLS  MOCLDY    47  20  34 CALM      30.07S
CANBY          PTCLDY    44  26  49 W5        30.07S
MARSHALL       CLEAR     52  18  25 NW3       30.05F
REDWOOD FALLS  FAIR      60  19  20 N3        30.05S
OLIVIA         MOCLDY    52  21  30 N3        30.05S
PIPESTONE      PTCLDY    52  18  25 NE6       30.06S
WINDOM         CLEAR     52  21  30 VRB7      30.06R
WORTHINGTON    PTCLDY    48  25  40 N3        30.07R
JACKSON        PTCLDY    52  27  37 N3        30.06S
TRACY          CLEAR     53  21  28 CALM      30.07R
SLAYTON        CLEAR     52  19  28 CALM      30.07S
$$
MNZ065>067-074>077-082>085-091>093-180600-
   South Central Minnesota

CITY           SKY/WX    TMP DP  RH WIND       PRES   REMARKS
MANKATO        PTCLDY    57  30  35 N6        30.04S
NEW ULM        PTCLDY    61  21  21 N6        30.04S
ST JAMES       PTCLDY    55  27  33 CALM      30.06R
FAIRMONT       PTCLDY    57  30  35 N6        30.04S
GLENCOE        MOCLDY    53  32  44 CALM      30.04S
FARIBAULT      PTCLDY    48  41  76 CALM      30.04S
OWATONNA       PTCLDY    50  37  62 CALM      30.04S
ALBERT LEA     CLEAR     57  41  54 CALM      30.04S
$$
MNZ078>079-086>088-094>096-180600-
   Southeast Minnesota

CITY           SKY/WX    TMP DP  RH WIND       PRES   REMARKS
ROCHESTER      PTCLDY    59  38  45 N6        30.05S
RED WING       PTCLDY    48  36  61 CALM      30.03R
STANTON        PTCLDY    48  38  66 S3        30.03S
DODGE CENTER   PTCLDY    59  37  44 N6        30.04F
WINONA         PTCLDY    55  46  71 NW3       30.03R
AUSTIN         FAIR      55  45  67 NE3       30.04S
PRESTON        PTCLDY    60  42  50 N3        30.04S
$$
ABBREVIATIONS USED IN REMARKS
   TC - TEMPERATURES IN CELSIUS
  WCI - WIND CHILL INDEX
   HX - HEAT INDEX
  VSB - VISIBILITY
$$



USA.gov is the U.S. government's official web portal to all federal, state and local government web resources and services.